TimeCST,TemperatureF,Dew PointF,Humidity,Sea Level PressureIn,VisibilityMPH,Wind Direction,Wind SpeedMPH,Gust SpeedMPH,PrecipitationIn,Events,Conditions,WindDirDegrees,DateUTC
12:15 AM,38.3,38.3,100,29.88,3.0,East,8.1,-,N/A,Rain,Light Rain,100,2012-12-08 06:15:00
12:35 AM,38.3,38.3,100,29.88,3.0,ENE,3.5,-,N/A,,Overcast,70,2012-12-08 06:35:00
12:55 AM,38.5,38.5,100,29.89,3.0,North,6.9,-,N/A,,Overcast,350,2012-12-08 06:55:00
1:15 AM,38.5,38.5,100,29.89,3.0,NNW,6.9,-,N/A,,Overcast,340,2012-12-08 07:15:00
1:35 AM,38.5,38.5,100,29.90,3.0,NNW,9.2,-,N/A,,Overcast,330,2012-12-08 07:35:00
1:55 AM,38.3,38.3,100,29.92,3.0,NNW,11.5,-,N/A,,Overcast,340,2012-12-08 07:55:00
2:15 AM,37.8,37.8,100,29.93,3.0,NNW,11.5,-,N/A,,Overcast,340,2012-12-08 08:15:00
2:35 AM,37.4,37.4,100,29.92,4.0,North,9.2,-,N/A,,Overcast,350,2012-12-08 08:35:00
2:55 AM,36.9,36.9,100,29.93,3.0,North,10.4,-,N/A,,Overcast,350,2012-12-08 08:55:00
3:15 AM,36.7,36.7,100,29.93,3.0,North,9.2,-,N/A,,Overcast,350,2012-12-08 09:15:00
3:35 AM,36.5,36.5,100,29.93,3.0,North,11.5,-,N/A,,Overcast,350,2012-12-08 09:35:00
3:55 AM,36.5,36.5,100,29.94,2.5,NNW,8.1,-,N/A,,Overcast,340,2012-12-08 09:55:00
4:15 AM,36.1,36.1,100,29.94,2.0,NNW,8.1,-,N/A,,Overcast,340,2012-12-08 10:15:00
4:35 AM,36.0,36.0,100,29.95,2.0,NNW,9.2,-,N/A,,Overcast,340,2012-12-08 10:35:00
4:55 AM,36.0,36.0,100,29.95,1.8,North,8.1,-,N/A,,Overcast,350,2012-12-08 10:55:00
5:15 AM,36.1,36.1,100,29.96,2.0,North,9.2,-,N/A,,Overcast,360,2012-12-08 11:15:00
5:35 AM,35.6,35.6,100,29.96,4.0,North,8.1,-,N/A,,Overcast,360,2012-12-08 11:35:00
5:55 AM,35.6,35.6,100,29.96,5.0,NNE,9.2,-,N/A,,Overcast,20,2012-12-08 11:55:00
6:15 AM,35.6,35.6,100,29.97,4.0,North,9.2,-,N/A,,Overcast,360,2012-12-08 12:15:00
6:35 AM,35.2,35.2,100,29.98,4.0,North,8.1,-,N/A,,Overcast,360,2012-12-08 12:35:00
6:55 AM,35.2,35.2,100,30.00,4.0,North,9.2,-,N/A,,Overcast,360,2012-12-08 12:55:00
7:15 AM,34.9,34.9,100,30.00,5.0,North,10.4,-,N/A,,Overcast,360,2012-12-08 13:15:00
7:35 AM,34.7,34.7,100,30.00,3.0,North,8.1,-,N/A,,Overcast,360,2012-12-08 13:35:00
7:55 AM,34.9,34.9,100,30.00,2.0,North,6.9,-,N/A,,Overcast,360,2012-12-08 13:55:00
8:15 AM,34.9,34.9,100,30.02,3.0,North,9.2,-,N/A,,Overcast,350,2012-12-08 14:15:00
8:35 AM,34.7,34.7,100,30.02,4.0,North,10.4,-,N/A,,Overcast,10,2012-12-08 14:35:00
8:55 AM,34.9,34.9,100,30.02,4.0,North,8.1,-,N/A,,Overcast,360,2012-12-08 14:55:00
9:15 AM,34.9,34.9,100,30.03,4.0,NNE,6.9,-,N/A,,Overcast,20,2012-12-08 15:15:00
9:35 AM,35.1,35.1,100,30.03,5.0,NNE,9.2,-,N/A,,Overcast,30,2012-12-08 15:35:00
9:55 AM,35.8,35.8,100,30.04,5.0,NNE,8.1,-,N/A,,Overcast,20,2012-12-08 15:55:00
10:15 AM,36.1,36.1,100,30.04,5.0,North,8.1,-,N/A,,Overcast,10,2012-12-08 16:15:00
10:35 AM,36.3,36.3,100,30.04,7.0,NNE,5.8,-,N/A,,Overcast,20,2012-12-08 16:35:00
10:55 AM,36.7,36.7,100,30.05,7.0,North,6.9,-,N/A,,Overcast,10,2012-12-08 16:55:00
11:15 AM,37.4,37.4,100,30.04,7.0,NNE,5.8,-,N/A,,Overcast,20,2012-12-08 17:15:00
11:35 AM,37.6,36.7,97,30.04,7.0,NNE,6.9,-,N/A,,Overcast,20,2012-12-08 17:35:00
11:55 AM,38.3,36.5,93,30.03,7.0,North,5.8,-,N/A,,Overcast,360,2012-12-08 17:55:00
12:15 PM,37.8,36.0,93,30.02,7.0,NNE,6.9,-,N/A,,Overcast,20,2012-12-08 18:15:00
12:35 PM,37.9,35.6,91,30.02,7.0,North,5.8,-,N/A,,Overcast,360,2012-12-08 18:35:00
12:55 PM,38.3,35.2,89,30.02,10.0,NE,6.9,-,N/A,,Overcast,50,2012-12-08 18:55:00
1:15 PM,38.5,34.7,86,30.02,10.0,NNE,5.8,-,N/A,,Overcast,30,2012-12-08 19:15:00
1:35 PM,39.2,35.6,87,30.01,7.0,NNE,10.4,-,N/A,,Overcast,20,2012-12-08 19:35:00
1:55 PM,38.1,34.3,86,30.02,10.0,NNE,5.8,-,N/A,,Overcast,30,2012-12-08 19:55:00
2:15 PM,38.1,34.7,87,30.02,7.0,NNE,10.4,-,N/A,,Overcast,30,2012-12-08 20:15:00
2:35 PM,37.9,34.7,88,30.02,10.0,NE,9.2,-,N/A,,Overcast,40,2012-12-08 20:35:00
2:55 PM,38.1,34.7,87,30.03,10.0,NNE,9.2,-,N/A,,Overcast,30,2012-12-08 20:55:00
3:15 PM,37.9,34.7,88,30.03,10.0,NE,10.4,-,N/A,,Overcast,50,2012-12-08 21:15:00
3:35 PM,37.9,34.3,87,30.03,10.0,ENE,11.5,-,N/A,,Overcast,60,2012-12-08 21:35:00
3:55 PM,37.4,34.2,88,30.04,10.0,ENE,9.2,-,N/A,,Overcast,70,2012-12-08 21:55:00
4:15 PM,36.9,34.0,89,30.03,10.0,East,6.9,-,N/A,,Scattered Clouds,90,2012-12-08 22:15:00
4:35 PM,36.5,34.3,92,30.03,10.0,East,4.6,-,N/A,,Scattered Clouds,90,2012-12-08 22:35:00
4:55 PM,35.6,34.2,94,30.04,7.0,ENE,4.6,-,N/A,,Overcast,60,2012-12-08 22:55:00
5:15 PM,35.6,34.3,95,30.05,10.0,NE,3.5,-,N/A,,Overcast,50,2012-12-08 23:15:00
5:35 PM,35.8,34.9,97,30.05,10.0,NE,4.6,-,N/A,,Overcast,40,2012-12-08 23:35:00
5:55 PM,36.3,34.9,95,30.06,10.0,NE,4.6,-,N/A,,Overcast,40,2012-12-08 23:55:00
6:15 PM,36.0,35.1,97,30.05,7.0,NE,5.8,-,N/A,,Overcast,40,2012-12-09 00:15:00
6:35 PM,37.4,35.6,93,30.04,10.0,NE,5.8,-,N/A,,Overcast,50,2012-12-09 00:35:00
6:55 PM,36.5,35.1,95,30.04,10.0,NE,5.8,-,N/A,,Overcast,50,2012-12-09 00:55:00
7:15 PM,36.7,35.2,95,30.03,10.0,East,6.9,-,N/A,,Overcast,90,2012-12-09 01:15:00
7:35 PM,36.9,35.6,95,30.04,10.0,East,5.8,-,N/A,,Overcast,80,2012-12-09 01:35:00
7:55 PM,36.9,35.6,95,30.04,10.0,East,6.9,-,N/A,,Overcast,80,2012-12-09 01:55:00
8:15 PM,37.0,35.8,95,30.03,10.0,East,6.9,-,N/A,,Overcast,80,2012-12-09 02:15:00
8:35 PM,37.0,35.8,95,30.03,10.0,East,9.2,-,N/A,,Overcast,90,2012-12-09 02:35:00
8:55 PM,36.9,35.8,96,30.02,7.0,East,9.2,-,N/A,,Overcast,90,2012-12-09 02:55:00
9:15 PM,36.9,35.6,95,30.02,10.0,East,10.4,-,N/A,,Overcast,80,2012-12-09 03:15:00
9:35 PM,37.0,35.6,95,30.02,10.0,East,10.4,-,N/A,,Overcast,80,2012-12-09 03:35:00
9:55 PM,37.0,35.1,93,30.01,10.0,East,10.4,-,N/A,,Overcast,80,2012-12-09 03:55:00
10:15 PM,37.0,35.2,93,30.02,10.0,East,10.4,-,N/A,,Overcast,90,2012-12-09 04:15:00
10:35 PM,36.9,35.2,94,30.02,10.0,East,8.1,-,N/A,,Overcast,80,2012-12-09 04:35:00
10:55 PM,36.7,35.2,95,30.02,10.0,East,9.2,-,N/A,,Overcast,90,2012-12-09 04:55:00
11:15 PM,36.7,35.2,95,30.02,7.0,East,6.9,-,N/A,,Overcast,80,2012-12-09 05:15:00
11:35 PM,36.9,35.6,95,30.02,7.0,East,8.1,-,N/A,,Overcast,90,2012-12-09 05:35:00
11:55 PM,36.9,36.0,97,30.01,7.0,East,9.2,-,N/A,,Overcast,100,2012-12-09 05:55:00